Airfield :
LOGIN :

Register | Disclaimer

   EN    FR    IT 

 










Legend :    VFR   Marginal VFR   IFR   Intensive IFR   Very Intensive IFR
Visi :
Ceiling :
>= 8 km
>= 3000ft
5 to 8 km
1000 to 3000 ft
1500m to 5 km
500 to 1000 ft
800 to 1500m
200 to 500 ft
< 800m
< 200 ft
Symbols :   Thunderstorms  Fog  Heavy snow  Heavy precipitations  Wind > 20 kt
SIGMETs :     Misc.  Thunderstorms  Icing  Turbulence  Mountain Waves  Volcanic Ashes







- Airport Elevation : 915 ft
- IATA code : LUG


LSZA - Lugano

CURRENT METAR :
  • 182050Z VRB02KT CAVOK 03/02 Q1017 NOSIG

EXPIRED METARs :
  • 182020Z 01003KT CAVOK 02/01 Q1017 NOSIG
  • 181950Z 02003KT CAVOK 04/03 Q1017 NOSIG
  • 181920Z VRB02KT CAVOK 02/00 Q1017 NOSIG
  • 181850Z VRB01KT CAVOK 04/03 Q1017 NOSIG
  • 181820Z VRB01KT CAVOK 05/03 Q1017 NOSIG

TAF TAF LSZA
Valid from the 18 at 15:00 until the 19 at 00:00 UTC


181425Z 1815/1824 VRB03KT CAVOK
BECMG 1821/1824 01010KT
PROB40 1821/1824 01015G25KT
ATIS : +41 22 417 40 88
No reported NOTAMs for that airfield.



MET'MAP, your aeronautical weather chart ! - Copyright ORBIFLY December 2007 - Disclaimer

ORBIFLY MET'MAP TEAM :

Programming & Development : Alexandra Zaïnal
Concept & Development : Baudouin d'Aumeries
Co-Development & Prog : Marc-Olivier Méhu
Technical & hardware support : Manuel Goepfert

Contact : metmap@orbifly.com




SOURCES & CREDITS :

   NOAA